FW6327 Weather Reports


time (UTC)temp
F
wind
direction
speed
knots
gust
knots
rain 1hr
in
rain 24hr
in
rain mn
in
humidity
%
barometer
mb
20210723152027 62 167 0.0 2.6 0.00 0.86 0.14 89 1014.4
20210723151551 61 33 0.0 2.6 0.00 0.86 0.14 90 1014.4
20210723151024 61 223 0.0 3.5 0.00 0.86 0.14 89 1014.4
20210723150527 61 192 1.7 3.5 0.00 0.86 0.14 89 1014.4
20210723150028 61 162 1.7 4.3 0.00 0.86 0.14 88 1014.5
20210723145527 61 182 0.0 3.5 0.00 0.86 0.14 90 1014.4
20210723145030 61 190 1.7 3.5 0.00 0.86 0.14 90 1014.5
20210723144522 61 132 0.9 2.6 0.00 0.86 0.14 89 1014.5
20210723144044 60 181 0.0 7.0 0.00 0.86 0.14 88 1014.5
20210723143522 60 123 2.6 7.0 0.00 0.86 0.14 88 1014.5
20210723143021 60 213 1.7 6.1 0.00 0.86 0.14 89 1014.5
20210723142520 60 170 2.6 6.1 0.00 0.86 0.14 87 1014.5
20210723142045 61 155 1.7 6.1 0.00 0.86 0.14 87 1014.4
20210723141525 61 200 2.6 6.1 0.00 0.86 0.14 89 1014.4
20210723141015 61 160 0.9 3.5 0.00 0.86 0.14 89 1014.2
20210723140535 60 177 1.7 3.5 0.00 0.86 0.14 88 1014.3
20210723140029 60 168 1.7 3.5 0.00 0.86 0.14 90 1014.2
20210723135511 60 171 1.7 3.5 0.00 0.86 0.14 91 1014.2
20210723135011 60 117 0.0 4.3 0.00 0.86 0.14 91 1014.2
20210723134009 60 181 0.9 4.3 0.00 0.86 0.14 91 1014.2
20210723133509 60 158 0.0 4.3 0.00 0.86 0.14 92 1014.1
20210723133029 59 59 0.9 4.3 0.00 0.86 0.14 92 1014.1
20210723132507 59 212 1.7 4.3 0.00 0.86 0.14 94 1014.1
20210723132002 58 152 1.7 4.3 0.00 0.86 0.14 94 1014.1
20210723131657 58 229 0.9 2.6 0.00 0.86 0.14 94 1014.1
20210723131506 58 214 0.9 2.6 0.00 0.86 0.14 94 1014.1
20210723131059 57 214 0.9 2.6 0.00 0.86 0.14 95 1014.2
20210723130559 57 220 0.9 3.5 0.00 0.86 0.14 95 1014.2
20210723125601 57 211 1.7 2.6 0.00 0.86 0.14 94 1014.1
20210723125105 57 159 0.0 2.6 0.00 0.86 0.14 94 1014.2
20210723124631 57 200 0.0 2.6 0.00 0.86 0.14 94 1014.1
20210723124056 57 196 0.9 4.3 0.00 0.86 0.14 95 1014.1
20210723123555 57 225 1.7 4.3 0.00 0.86 0.14 95 1014.1
20210723123121 57 194 0.9 4.3 0.00 0.86 0.14 95 1014.1
20210723122603 57 230 0.9 2.6 0.00 0.86 0.14 95 1014.1
20210723122053 57 208 0.9 2.6 0.00 0.86 0.14 95 1014.1
20210723121749 56 246 0.9 3.5 0.00 0.86 0.14 95 1014.0
20210723121051 56 188 1.7 3.5 0.00 0.86 0.14 95 1013.8
20210723120607 56 342 0.0 1.7 0.00 0.86 0.14 94 1013.9
20210723120312 56 80 0.0 2.6 0.00 0.86 0.14 94 1013.8
20210723115554 56 85 0.9 2.6 0.00 0.86 0.14 94 1013.6
20210723115048 56 245 0.9 2.6 0.00 0.86 0.14 94 1013.6
20210723114739 56 173 0.0 12.2 0.00 0.86 0.14 92 1013.6
20210723114045 56 78 7.0 12.2 0.00 0.86 0.14 91 1013.5
20210723113542 56 58 6.1 12.2 0.00 0.86 0.14 92 1013.4
20210723113201 56 53 5.2 11.3 0.00 0.86 0.14 92 1013.4
20210723112543 56 88 2.6 10.4 0.00 0.86 0.14 92 1013.3
20210723112038 56 24 3.5 10.4 0.00 0.86 0.14 91 1013.3
20210723111550 56 5 4.3 10.4 0.00 0.86 0.14 92 1013.2
20210723111041 56 89 3.5 10.4 0.00 0.86 0.14 92 1013.1
20210723110537 56 77 1.7 7.8 0.00 0.86 0.14 92 1013.0
20210723110116 56 84 1.7 7.8 0.00 0.86 0.14 93 1013.0
20210723105543 56 81 1.7 7.0 0.00 0.86 0.14 94 1013.0
20210723105044 55 117 0.0 4.3 0.00 0.86 0.14 95 1012.9
20210723104609 55 74 1.7 4.3 0.00 0.86 0.14 95 1012.9
20210723104035 56 203 0.9 4.3 0.01 0.86 0.14 94 1012.8
20210723103531 55 134 0.9 8.7 0.01 0.86 0.14 94 1012.7
20210723103100 55 51 4.3 8.7 0.01 0.86 0.14 93 1012.6
20210723102528 55 81 2.6 12.2 0.02 0.86 0.14 94 1012.6
20210723102027 55 84 1.7 12.2 0.02 0.86 0.14 94 1012.7
20210723101547 55 61 3.5 9.6 0.02 0.86 0.14 95 1012.5
20210723101029 55 30 1.7 9.6 0.02 0.86 0.14 95 1012.6
20210723100524 55 125 3.5 9.6 0.02 0.86 0.14 96 1012.5
20210723100122 55 38 2.6 7.0 0.02 0.86 0.14 96 1012.5
20210723095521 55 98 1.7 7.8 0.02 0.86 0.14 96 1012.3
20210723095036 55 123 2.6 7.8 0.02 0.86 0.14 96 1012.3
20210723094523 55 69 2.6 7.0 0.02 0.86 0.14 96 1012.3
20210723094025 55 202 0.9 9.6 0.02 0.85 0.13 96 1012.1
20210723093527 55 103 5.2 9.6 0.02 0.85 0.13 96 1012.0
20210723093116 55 65 0.9 3.5 0.02 0.85 0.13 97 1012.0
20210723092516 55 160 0.9 5.2 0.02 0.84 0.13 97 1012.0
20210723092014 55 88 1.7 5.2 0.02 0.84 0.13 97 1011.9
20210723091533 55 74 1.7 4.3 0.02 0.84 0.13 98 1011.8
20210723091013 55 246 0.9 3.5 0.03 0.84 0.13 98 1011.8
20210723090510 55 254 0.9 3.5 0.03 0.84 0.13 98 1011.7
20210723090038 55 227 1.7 4.3 0.02 0.83 0.12 98 1011.6
20210723085508 55 130 1.7 3.5 0.02 0.83 0.12 98 1011.4
20210723085016 55 257 0.9 4.3 0.02 0.83 0.12 98 1011.4
20210723084507 55 185 2.6 4.3 0.03 0.83 0.12 98 1011.3
20210723084006 55 249 0.9 2.6 0.02 0.83 0.11 98 1011.3
20210723083515 55 249 0.0 2.6 0.02 0.83 0.11 98 1011.3
20210723083021 55 242 0.9 2.6 0.03 0.83 0.11 98 1011.2
20210723082504 55 242 0.9 2.6 0.02 0.82 0.10 98 1011.2
20210723082005 55 175 0.0 2.6 0.02 0.82 0.10 98 1011.1
20210723081645 55 180 0.9 2.6 0.03 0.82 0.10 98 1011.1
20210723081059 55 267 0.0 1.7 0.02 0.81 0.09 98 1011.0
20210723080614 55 267 0.9 2.6 0.02 0.81 0.09 98 1010.9
20210723080148 56 242 1.7 3.5 0.03 0.81 0.09 98 1010.9
20210723075557 55 207 1.7 3.5 0.03 0.81 0.09 98 1010.8
20210723075056 56 227 1.7 3.5 0.03 0.81 0.09 98 1010.7
20210723074754 56 245 1.7 3.5 0.03 0.80 0.09 98 1010.6
20210723074107 56 251 1.7 3.5 0.03 0.80 0.09 98 1010.7
20210723073607 56 209 0.9 3.5 0.03 0.80 0.09 98 1010.7
20210723073132 56 227 1.7 3.5 0.03 0.80 0.08 98 1010.8
20210723072553 56 213 1.7 2.6 0.03 0.80 0.08 98 1010.7
20210723072051 56 213 0.0 1.7 0.03 0.80 0.08 98 1010.7
20210723071647 56 213 0.0 3.5 0.02 0.79 0.07 98 1010.9
20210723071049 56 242 1.7 4.3 0.02 0.79 0.07 98 1010.8
20210723070558 56 196 1.7 3.5 0.02 0.79 0.07 98 1010.9
20210723070112 56 207 0.9 2.6 0.02 0.78 0.06 98 1010.9
20210723065546 56 207 0.9 2.6 0.02 0.78 0.06 98 1010.8
20210723065103 56 207 0.9 3.5 0.02 0.77 0.06 98 1010.6
20210723064618 56 209 1.7 3.5 0.02 0.77 0.06 98 1010.7
20210723064116 56 240 2.6 4.3 0.02 0.77 0.06 98 1010.5
20210723063542 56 226 1.7 4.3 0.02 0.77 0.06 98 1010.6
20210723063106 56 232 0.9 2.6 0.02 0.76 0.05 98 1010.5
20210723062540 56 220 0.0 2.6 0.02 0.76 0.05 98 1010.5
20210723062039 56 221 0.0 2.6 0.02 0.76 0.05 98 1010.5
20210723061623 56 213 0.0 3.5 0.02 0.76 0.05 98 1010.6
20210723061040 56 189 1.7 3.5 0.02 0.76 0.05 98 1010.6
20210723060605 56 223 0.0 2.6 0.02 0.76 0.05 98 1010.6
20210723060224 56 223 0.0 2.6 0.02 0.76 0.04 98 1010.4
20210723055545 56 246 0.0 1.7 0.02 0.76 0.04 98 1010.5
20210723055045 56 246 0.0 0.9 0.02 0.76 0.04 98 1010.6
20210723054607 56 246 0.0 0.9 0.02 0.76 0.04 98 1010.6
20210723054033 56 246 0.0 0.9 0.02 0.76 0.04 98 1010.4
20210723053535 56 246 0.0 2.6 0.02 0.75 0.03 98 1010.4
20210723053216 56 246 0.0 2.6 0.02 0.75 0.03 98 1010.5
20210723052532 56 235 0.0 0.9 0.02 0.75 0.03 98 1010.4
20210723052033 56 235 0.0 0.9 0.02 0.75 0.03 98 1010.3
20210723051610 57 235 0.0 0.9 0.02 0.75 0.03 98 1010.3
20210723051028 57 235 0.0 0.9 0.01 0.74 0.02 98 1010.2
20210723050534 57 235 0.0 0.9 0.01 0.74 0.02 98 1010.1
20210723050045 56 235 0.0 0.9 0.02 0.74 0.02 98 1010.2
20210723045531 57 235 0.0 1.7 0.02 0.74 0.02 98 1010.1
20210723045025 57 235 0.0 4.3 0.02 0.74 0.02 98 1010.1
20210723044554 57 235 0.9 4.3 0.01 0.73 0.02 98 1010.0
20210723044024 57 236 0.9 3.5 0.01 0.73 0.02 98 1009.9
20210723043531 57 239 0.9 3.5 0.01 0.73 0.02 98 1010.0
20210723043107 57 200 0.9 3.5 0.01 0.73 0.02 98 1009.9
20210723042525 57 239 0.9 2.6 0.01 0.73 0.02 98 1010.0
20210723042026 57 215 1.7 3.5 0.01 0.73 0.02 97 1010.0
20210723041542 57 201 0.9 3.5 0.01 0.73 0.02 98 1010.1
20210723041026 57 190 1.7 3.5 0.02 0.73 0.02 97 1010.1
20210723040554 57 190 1.7 3.5 0.02 0.73 0.02 97 1010.2
20210723040026 57 198 0.9 2.6 0.01 0.72 0.01 97 1010.2
20210723035516 57 275 0.0 4.3 0.01 0.72 0.01 97 1010.2
20210723035023 57 235 0.9 4.3 0.02 0.72 0.01 97 1010.1
20210723034514 57 146 0.0 4.3 0.02 0.72 0.01 97 1010.2
20210723034017 57 191 0.9 4.3 0.02 0.72 0.01 97 1010.2
20210723033512 57 176 0.9 3.5 0.02 0.72 0.01 97 1010.3
20210723033013 57 180 0.0 2.6 0.02 0.72 0.01 97 1010.3
20210723032510 58 186 0.0 2.6 0.02 0.72 0.01 97 1010.4
20210723032009 58 171 0.9 1.7 0.02 0.72 0.01 98 1010.4
20210723031511 58 170 0.0 0.9 0.01 0.72 0.00 98 1010.4
20210723031012 58 170 0.0 0.9 0.02 0.72 0.00 97 1010.4
20210723030512 58 170 0.0 0.9 0.02 0.72 0.00 97 1010.2
20210723030047 58 170 0.0 1.7 0.02 0.72 0.00 97 1010.3
20210723025526 58 170 0.0 1.7 0.02 0.72 0.72 98 1010.2
20210723025004 58 170 0.0 3.5 0.01 0.71 0.71 97 1010.1
20210723024508 58 170 0.9 3.5 0.01 0.71 0.71 97 1010.1
20210723023503 58 184 0.0 2.6 0.01 0.71 0.71 98 1010.0
20210723023006 58 178 0.9 2.6 0.01 0.71 0.71 97 1010.1
20210723022602 58 219 1.7 2.6 0.01 0.71 0.71 97 1010.1
20210723022120 58 225 0.9 1.7 0.02 0.71 0.71 97 1010.2
20210723021805 58 225 0.0 2.6 0.02 0.71 0.71 98 1010.2
20210723021058 58 225 0.0 4.3 0.01 0.70 0.70 98 1010.2
20210723020556 58 195 1.7 4.3 0.01 0.70 0.70 97 1010.2
20210723020113 59 211 0.9 2.6 0.01 0.70 0.70 98 1010.3
20210723015555 59 217 0.9 3.5 0.01 0.70 0.70 97 1010.3
20210723015121 59 205 1.7 3.5 0.01 0.70 0.70 97 1010.3
20210723014659 59 217 0.9 2.6 0.01 0.70 0.70 98 1010.3
20210723014102 59 217 0.9 2.6 0.02 0.70 0.70 98 1010.3
20210723013552 59 217 0.0 1.7 0.02 0.70 0.70 98 1010.4
20210723013155 59 217 0.0 2.6 0.02 0.70 0.70 97 1010.3
20210723012549 60 217 0.0 2.6 0.02 0.70 0.70 97 1010.3
20210723012519 60 216 0.0 2.6 0.02 0.70 0.70 97 1010.3
20210723012103 60 216 0.9 2.6 0.02 0.69 0.69 97 1010.3
20210723011653 60 175 0.9 2.6 0.02 0.69 0.69 97 1010.3
20210723011046 60 163 0.0 1.7 0.02 0.69 0.69 97 1010.3
20210723010544 60 151 0.0 0.9 0.02 0.69 0.69 98 1010.4
20210723005550 60 151 0.0 0.9 0.02 0.69 0.69 97 1010.3
20210723005043 60 151 0.0 1.7 0.02 0.69 0.69 97 1010.3
20210723004656 60 151 0.9 1.7 0.02 0.69 0.69 97 1010.3
20210723004041 60 125 0.0 1.7 0.01 0.69 0.69 97 1010.2
20210723003542 60 125 0.0 1.7 0.00 0.68 0.68 97 1010.2
20210723003156 60 125 0.0 1.7 0.00 0.68 0.68 97 1010.1
20210723002604 60 80 0.0 1.7 0.00 0.68 0.68 97 1010.1
20210723002038 60 80 0.0 0.9 0.00 0.68 0.68 97 1009.9
20210723001724 60 80 0.0 1.7 0.00 0.68 0.68 97 1009.8
20210723001037 61 80 0.0 1.7 0.00 0.68 0.68 97 1009.7
20210723000612 61 78 0.0 1.7 0.00 0.68 0.68 97 1009.8
20210723000056 61 76 0.0 1.7 0.00 0.68 0.68 96 1009.7
20210722191644 62 217 0.0 0.9 0.16 0.59 0.56 97 1008.6
20210722191039 62 217 0.0 0.0 0.20 0.57 0.55 97 1008.7
20210722190539 63 217 0.0 0.9 0.21 0.56 0.54 97 1008.8
20210722190056 63 217 0.0 0.9 0.25 0.56 0.54 97 1008.8
20210722185537 63 217 0.0 0.9 0.24 0.56 0.53 97 1009.0
20210722185035 63 217 0.0 0.9 0.24 0.54 0.51 97 1009.0
20210722184620 63 217 0.0 0.9 0.23 0.54 0.50 97 1009.0
20210722184051 63 217 0.0 0.9 0.22 0.52 0.49 97 1008.8
20210722183545 63 217 0.0 1.7 0.20 0.50 0.47 97 1008.6
20210722183116 63 217 0.0 2.6 0.20 0.50 0.46 97 1008.7
20210722182533 63 183 0.9 2.6 0.19 0.48 0.45 97 1008.8
20210722182041 63 183 0.0 2.6 0.17 0.46 0.43 97 1008.6
20210722181602 63 183 0.9 3.5 0.13 0.43 0.39 97 1008.8
20210722181042 63 173 0.9 3.5 0.11 0.39 0.35 97 1008.7
20210722180549 63 212 0.9 7.0 0.09 0.36 0.33 97 1008.7
20210722180037 63 243 2.6 7.0 0.06 0.31 0.28 97 1008.7
20210722175532 63 193 3.5 6.1 0.08 0.31 0.28 96 1008.7
20210722175032 64 5 0.0 3.5 0.08 0.31 0.28 97 1008.4
20210722174544 64 59 0.0 2.6 0.09 0.31 0.28 97 1008.4
20210722174036 64 63 0.9 2.6 0.10 0.30 0.27 96 1008.4
20210722173524 64 50 0.0 1.7 0.13 0.30 0.27 97 1008.5
20210722173038 64 50 0.0 1.7 0.13 0.28 0.26 96 1008.5
20210722172522 64 50 0.0 2.6 0.13 0.28 0.26 96 1008.6
20210722172021 63 50 0.9 2.6 0.13 0.28 0.26 96 1008.7
20210722171550 64 63 0.9 1.7 0.15 0.28 0.26 96 1008.7
20210722171022 64 63 0.0 1.7 0.17 0.28 0.24 96 1008.8
20210722170523 64 63 0.0 2.6 0.17 0.27 0.24 96 1008.8
20210722170035 64 63 0.0 3.5 0.15 0.25 0.22 96 1008.8
20210722165536 64 57 1.7 4.3 0.13 0.24 0.20 96 1008.9
20210722165016 64 41 2.6 4.3 0.13 0.23 0.20 96 1008.9
20210722164521 64 229 1.7 2.6 0.12 0.22 0.19 97 1009.3
20210722164018 64 229 0.0 2.6 0.09 0.19 0.16 97 1009.2
20210722163517 64 229 0.0 2.6 0.08 0.17 0.14 97 1009.5
20210722163053 64 233 1.7 3.5 0.08 0.17 0.13 97 1009.6
20210722162514 64 160 0.9 3.5 0.11 0.16 0.13 96 1009.3
20210722162012 65 69 1.7 3.5 0.13 0.16 0.13 96 1009.1
20210722161521 65 51 0.9 2.6 0.10 0.13 0.10 96 1009.1
20210722161029 65 46 0.9 2.6 0.08 0.11 0.08 96 1009.4
20210722160508 65 15 0.0 1.7 0.07 0.10 0.07 96 1009.4
20210722160029 65 15 0.0 0.9 0.07 0.10 0.07 97 1009.4
20210722155512 65 15 0.0 0.9 0.07 0.10 0.07 97 1009.5
20210722155009 65 15 0.0 1.7 0.07 0.10 0.07 97 1009.6
20210722154508 65 15 0.0 1.7 0.07 0.10 0.07 97 1009.7
20210722154007 65 15 0.9 2.6 0.06 0.09 0.06 97 1009.6
20210722153508 65 54 0.9 3.5 0.06 0.09 0.06 96 1009.5
20210722153006 65 211 0.9 6.1 0.05 0.08 0.05 96 1009.6